This is the latest recevied weather packets stored in our database for station/object NK0Z-13. If no packets are shown the sender has not sent any weather packets the latest 10 day(s).
| Time | Temp. | Humidity | Pressure | Rain* | Wind** | Luminosity | Snow |
|---|---|---|---|---|---|---|---|
| 1777853516 | 27.78° C | 22% | 1008.8 hPa | 0 mm | - | 61 W/m² | - |
| 1777852916 | 28.33° C | 21% | 1009.4 hPa | 0 mm | - | 79 W/m² | - |
| 1777852311 | 28.89° C | 19% | 1009.4 hPa | 0 mm | - | 133 W/m² | - |
| 1777851707 | 28.89° C | 19% | 1009.4 hPa | 0 mm | - | 190 W/m² | - |
| 1777851105 | 28.89° C | 18% | 1009.6 hPa | 0 mm | - | 134 W/m² | - |
| 1777850505 | 29.44° C | 18% | 1009.7 hPa | 0 mm | - | 292 W/m² | - |
| 1777849905 | 30° C | 18% | 1009.7 hPa | 0 mm | - | 171 W/m² | - |
| 1777849305 | 30° C | 18% | 1010 hPa | 0 mm | - | 378 W/m² | - |
| 1777848702 | 30° C | 19% | 1009.7 hPa | 0 mm | - | 309 W/m² | - |
| 1777848097 | 29.44° C | 18% | 1009.9 hPa | 0 mm | - | 260 W/m² | - |
| 1777847497 | 30° C | 19% | 1009.9 hPa | 0 mm | - | 264 W/m² | - |
| 1777846892 | 30° C | 18% | 1009.9 hPa | 0 mm | - | 263 W/m² | - |
| 1777846287 | 30.56° C | 16% | 1010 hPa | 0 mm | - | 329 W/m² | - |
| 1777845686 | 30.56° C | 18% | 1010.2 hPa | 0 mm | - | 333 W/m² | - |
| 1777845086 | 30° C | 17% | 1010.1 hPa | 0 mm | - | 437 W/m² | - |
| 1777844480 | 30° C | 19% | 1010.4 hPa | 0 mm | - | 381 W/m² | - |
| 1777843876 | 30° C | 19% | 1010.7 hPa | 0 mm | - | 493 W/m² | - |
| 1777843271 | 30° C | 20% | 1010.9 hPa | 0 mm | - | 510 W/m² | - |
| 1777842669 | 29.44° C | 18% | 1011.3 hPa | 0 mm | - | 388 W/m² | - |
| 1777842068 | 28.89° C | 20% | 1011.3 hPa | 0 mm | - | 367 W/m² | - |
| 1777841467 | 29.44° C | 18% | 1011.6 hPa | 0 mm | - | 472 W/m² | - |
| 1777840861 | 29.44° C | 18% | 1011.8 hPa | 0 mm | - | 550 W/m² | - |
| 1777840261 | 30° C | 18% | 1012.2 hPa | 0 mm | - | 379 W/m² | - |
| 1777839656 | 30° C | 18% | 1012.3 hPa | 0 mm | - | 574 W/m² | - |
| 1777839051 | 30° C | 18% | 1012.5 hPa | 0 mm | - | 795 W/m² | - |
* Rain latest hour (hover to see other rain measurements)
** Current wind speed in m/s (hover to see current wind gust speed)